Location: ????????
(60.4333°N, 46.4710°E)
Time: 18:54:28
(UTC+00:00)

Cosmos 468 Rocket - Pass Details

Date: 25 November 2020
Orbit: 743 x 780 km, 74.0° (Epoch: 17 January)

Event Time Altitude Azimuth Distance (km) Brightness Sun altitude
Rises 13:19:35 0° 205° (SSW) 3,178 8.1 -8.6°
Reaches altitude 10° 13:21:55 10° 204° (SSW) 2,258 7.3 -8.9°
Maximum altitude 13:27:02 78° 119° (ESE) 770 4.0 -9.4°
Drops below altitude 10° 13:32:11 10° 34° (NE) 2,280 5.9 -10.0°
Enters shadow 13:32:28 - 34° (NE) 2,388 6.0 -10.0°
